Location: White Mills Observatory
(37.5374°N, 86.0303°W)
Time: 18:15:42
(UTC-04:00)

Amateur Radio Satellites - All Passes

Search period start: 22 September 2014 17:45
Search period end: 23 September 2014 17:45
Location: White Mills Observatory, 37.5374°N, 86.0303°W

Satellite Date Start Highest point End Downlink Frequencies (MHz)
Time Altitude Azimuth
OPAL 22 Sep 17:54:49 17:59:16 29° 98° (E) 18:03:38 ?
Uosat F 22 Sep 18:19:26 18:23:24 24° 265° (W) 18:27:23 435.120 FM
Saudisat 1A 22 Sep 18:45:05 18:47:57 17° 314° (NW) 18:50:50 436.775 MHz
Hamsat 22 Sep 18:54:04 18:58:26 90° 262° (W) 19:02:48 145.90 MHz
AO-7 22 Sep 19:11:56 19:16:20 15° 269° (W) 19:20:46 29.400 - 29.500 MHz
MaSat-1 22 Sep 19:12:14 19:14:53 21° 256° (WSW) 19:17:16 437.345 MHz
JAS-2 22 Sep 19:21:12 19:26:14 46° 261° (W) 19:31:13 435.800 - 435.900 CW/SSB, 435.910 FM
KITSAT 1 22 Sep 19:25:50 19:33:43 59° 113° (ESE) 19:41:36 435.175 FM
OPAL 22 Sep 19:33:36 19:38:04 31° 294° (WNW) 19:42:28 ?
SO-67 22 Sep 19:43:44 19:46:56 37° 74° (ENE) 19:50:09 435.3500 MHz FM
HO-68 22 Sep 20:18:37 20:23:06 18° 57° (ENE) 20:27:34 435.675 MHz FM
STRAND 1 22 Sep 20:19:17 20:24:20 55° 101° (E) 20:29:21 ?
Sapphire 22 Sep 20:39:25 20:43:14 19° 48° (NE) 20:47:02 437.095 MHz 1200 baud AX-25 AFSK
PCSat 22 Sep 21:05:25 21:10:16 32° 54° (NE) 21:15:04 145.825 MHz
KITSAT 1 22 Sep 21:22:27 21:29:30 32° 312° (NW) 21:36:37 435.175 FM
SO-50 22 Sep 21:39:59 21:43:37 25° 111° (ESE) 21:47:19 436.795 FM
STRAND 1 22 Sep 21:59:49 22:03:02 17° 296° (WNW) 22:06:16 ?
HO-68 22 Sep 22:02:46 22:09:54 84° 255° (WSW) 22:17:06 435.675 MHz FM
Oscar 11 22 Sep 22:15:02 22:19:06 40° 72° (ENE) 22:23:11 145.825 FM, Beacon 2401.500 USB
FUNcube-1 22 Sep 22:15:34 22:18:23 17° 66° (ENE) 22:21:15 145.950 - 145.970 MHz USB
Sapphire 22 Sep 22:21:44 22:27:06 64° 246° (WSW) 22:32:26 437.095 MHz 1200 baud AX-25 AFSK
UKube-1 22 Sep 22:34:57 22:39:16 82° 257° (WSW) 22:43:38 145.840 MHz, 145.915 MHz
PCSat 22 Sep 22:48:48 22:53:37 33° 251° (WSW) 22:58:25 145.825 MHz
ZACube-1 22 Sep 22:57:00 23:01:14 47° 73° (ENE) 23:05:35 437.345 MHz
UOSAT-12 22 Sep 23:00:26 23:02:40 14° 107° (ESE) 23:04:55 437.025 FM, 437.400 FM
SO-50 22 Sep 23:19:59 23:24:00 32° 308° (NW) 23:28:08 436.795 FM
FUNcube-1 22 Sep 23:50:11 23:54:23 43° 262° (W) 23:58:42 145.950 - 145.970 MHz USB
Oscar 11 22 Sep 23:52:44 23:55:25 16° 267° (W) 23:58:08 145.825 FM, Beacon 2401.500 USB
HO-68 22 Sep 23:55:55 23:58:30 12° 271° (W) 00:01:06 435.675 MHz FM
Oscar 10/S400 23 Sep 00:22:35 01:12:12 57° 207° (SSW) 09:42:31 145.825 - 145.975 CW/USB, Beacon 145.810 USB
ZACube-1 23 Sep 00:35:31 00:37:53 14° 269° (W) 00:40:18 437.345 MHz
UOSAT-12 23 Sep 00:37:42 00:42:15 60° 303° (WNW) 00:46:55 437.025 FM, 437.400 FM
PANSAT 23 Sep 01:01:09 01:03:30 16° 168° (SSE) 01:05:51 not established
AO-40 23 Sep 01:16:51 02:35:46 19° 234° (SW) 04:50:26 Beacon 2401.320
Saudisat 1A 23 Sep 01:32:36 01:36:21 26° 50° (NE) 01:40:03 436.775 MHz
Oscar 16 23 Sep 02:14:32 02:18:02 18° 93° (E) 02:21:29 437.025 USB, Beacon 2401.1428
ISS 23 Sep 02:22:28 02:25:47 76° 321° (NW) 02:29:07 145.800 FM
PANSAT 23 Sep 02:40:10 02:43:06 21° 180° (S) 02:46:01 not established
JAS-1B 23 Sep 02:51:28 02:55:42 21° 95° (E) 03:00:01 435.800 - 435.900 CW/SSB
ITAMSAT 1 23 Sep 03:05:02 03:09:06 23° 95° (E) 03:13:10 435.822 SSB
Uribyol 2 23 Sep 03:08:05 03:12:26 26° 96° (E) 03:16:45 436.500 FM
Saudisat 1A 23 Sep 03:12:01 03:15:54 30° 247° (WSW) 03:19:45 436.775 MHz
Oscar 19 23 Sep 03:13:00 03:18:09 68° 102° (ESE) 03:23:15 437.125 CW, 437.150 USB
Gurwin Techsat 1B 23 Sep 03:16:05 03:18:36 13° 91° (E) 03:21:07 435.225 FM
KITSAT 1 23 Sep 03:21:48 03:27:56 23° 42° (NE) 03:34:00 435.175 FM
AO-Echo 23 Sep 03:35:46 03:40:36 56° 101° (E) 03:45:34 ?
RS-15 23 Sep 03:36:06 03:45:45 36° 106° (ESE) 03:55:14 29.354 - 29.394 USB, Beacon 29.352 USB
AO-27 23 Sep 03:40:16 03:45:22 52° 100° (E) 03:50:26 436.795 MHz FM
TMSAT-1 23 Sep 03:49:28 03:53:28 21° 94° (E) 03:57:27 436.925 FM
Oscar 16 23 Sep 03:52:39 03:57:36 48° 288° (WNW) 04:02:31 437.025 USB, Beacon 2401.1428
ISS 23 Sep 04:01:08 04:02:58 14° 338° (NNW) 04:04:48 145.800 FM
PANSAT 23 Sep 04:20:25 04:22:41 15° 193° (SSW) 04:24:56 not established
JAS-1B 23 Sep 04:41:17 04:46:36 42° 290° (WNW) 04:52:03 435.800 - 435.900 CW/SSB
ITAMSAT 1 23 Sep 04:43:51 04:48:41 39° 290° (WNW) 04:53:30 435.822 SSB
Uribyol 2 23 Sep 04:47:12 04:51:54 35° 291° (WNW) 04:56:35 436.500 FM
Uosat F 23 Sep 04:51:38 04:53:37 12° 91° (E) 04:55:36 435.120 FM
Gurwin Techsat 1B 23 Sep 04:53:44 04:59:00 67° 286° (WNW) 05:04:15 435.225 FM
Oscar 19 23 Sep 04:54:18 04:56:52 14° 298° (WNW) 04:59:25 437.125 CW, 437.150 USB
OPAL 23 Sep 05:07:31 05:12:23 43° 69° (ENE) 05:17:19 ?
AO-Echo 23 Sep 05:16:04 05:18:56 16° 295° (WNW) 05:21:50 ?
KITSAT 1 23 Sep 05:16:15 05:24:22 88° 243° (WSW) 05:32:26 435.175 FM
AO-7 23 Sep 05:18:33 05:26:00 36° 98° (E) 05:33:25 29.400 - 29.500 MHz
AO-27 23 Sep 05:20:56 05:24:26 19° 296° (WNW) 05:27:56 436.795 MHz FM
TMSAT-1 23 Sep 05:28:33 05:33:32 43° 289° (WNW) 05:38:30 436.925 FM
RS-15 23 Sep 05:46:38 05:57:29 60° 307° (NW) 06:08:17 29.354 - 29.394 USB, Beacon 29.352 USB
SO-50 23 Sep 06:13:16 06:16:31 18° 46° (NE) 06:19:48 436.795 FM
Uosat F 23 Sep 06:27:49 06:32:49 67° 286° (WNW) 06:37:48 435.120 FM
JAS-2 23 Sep 06:30:37 06:35:48 25° 96° (E) 06:41:24 435.800 - 435.900 CW/SSB, 435.910 FM
Hamsat 23 Sep 06:42:54 06:45:49 18° 93° (E) 06:48:43 145.90 MHz
OPAL 23 Sep 06:47:31 06:51:24 21° 264° (W) 06:55:19 ?
AO-7 23 Sep 07:11:04 07:18:52 48° 295° (WNW) 07:26:40 29.400 - 29.500 MHz
KITSAT 1 23 Sep 07:14:19 07:18:36 16° 260° (W) 07:22:54 435.175 FM
ISS 23 Sep 07:17:28 07:18:56 12° 20° (NNE) 07:20:24 145.800 FM
MaSat-1 23 Sep 07:19:02 07:22:04 16° 102° (ESE) 07:25:06 437.345 MHz
UOSAT-12 23 Sep 07:32:40 07:32:47 10° 39° (NE) 07:32:55 437.025 FM, 437.400 FM
STRAND 1 23 Sep 07:33:17 07:38:18 65° 74° (ENE) 07:43:22 ?
SO-50 23 Sep 07:52:43 07:57:29 62° 243° (WSW) 08:02:17 436.795 FM
RS-15 23 Sep 08:05:21 08:12:49 20° 335° (NNW) 08:20:20 29.354 - 29.394 USB, Beacon 29.352 USB
JAS-2 23 Sep 08:14:54 08:20:56 52° 288° (WNW) 08:27:44 435.800 - 435.900 CW/SSB, 435.910 FM
Hamsat 23 Sep 08:18:04 08:21:50 32° 288° (WNW) 08:25:34 145.90 MHz
SO-67 23 Sep 08:41:48 08:45:13 61° 100° (E) 08:48:37 435.3500 MHz FM
ISS 23 Sep 08:52:56 08:56:13 58° 37° (NE) 08:59:30 145.800 FM
MaSat-1 23 Sep 08:53:26 08:58:20 55° 297° (WNW) 09:03:09 437.345 MHz
UOSAT-12 23 Sep 09:09:08 09:13:51 67° 58° (ENE) 09:18:28 437.025 FM, 437.400 FM
STRAND 1 23 Sep 09:15:42 09:17:55 13° 269° (W) 09:20:08 ?
HO-68 23 Sep 09:34:00 09:39:06 20° 93° (E) 09:44:10 435.675 MHz FM
RS-15 23 Sep 10:25:16 10:31:29 16° 13° (NNE) 10:37:45 29.354 - 29.394 USB, Beacon 29.352 USB
UKube-1 23 Sep 10:26:02 10:29:11 19° 95° (E) 10:32:19 145.840 MHz, 145.915 MHz
ISS 23 Sep 10:31:04 10:32:33 13° 232° (SW) 10:34:03 145.800 FM
ZACube-1 23 Sep 10:50:41 10:52:08 11° 90° (E) 10:53:34 437.345 MHz
UOSAT-12 23 Sep 10:51:36 10:53:22 12° 253° (WSW) 10:55:07 437.025 FM, 437.400 FM
Sapphire 23 Sep 11:19:40 11:23:44 22° 106° (ESE) 11:27:49 437.095 MHz 1200 baud AX-25 AFSK
HO-68 23 Sep 11:20:10 11:27:17 68° 289° (WNW) 11:34:23 435.675 MHz FM
Oscar 11 23 Sep 11:40:21 11:44:42 75° 284° (WNW) 11:49:00 145.825 FM, Beacon 2401.500 USB
FUNcube-1 23 Sep 11:41:11 11:45:35 43° 98° (E) 11:49:52 145.950 - 145.970 MHz USB
PCSat 23 Sep 11:45:03 11:50:06 42° 111° (ESE) 11:55:10 145.825 MHz
UKube-1 23 Sep 12:01:30 12:05:25 33° 289° (WNW) 12:09:19 145.840 MHz, 145.915 MHz
ZACube-1 23 Sep 12:24:21 12:28:55 61° 285° (WNW) 12:33:23 437.345 MHz
RS-15 23 Sep 12:37:55 12:48:12 41° 46° (NE) 12:58:48 29.354 - 29.394 USB, Beacon 29.352 USB
Sapphire 23 Sep 13:01:38 13:06:48 46° 302° (WNW) 13:12:01 437.095 MHz 1200 baud AX-25 AFSK
HO-68 23 Sep 13:11:19 13:13:40 12° 307° (NW) 13:16:00 435.675 MHz FM
FUNcube-1 23 Sep 13:18:35 13:21:35 17° 294° (WNW) 13:24:33 145.950 - 145.970 MHz USB
PCSat 23 Sep 13:29:07 13:33:38 26° 308° (NW) 13:38:10 145.825 MHz
Oscar 16 23 Sep 13:29:36 13:33:35 23° 66° (ENE) 13:37:36 437.025 USB, Beacon 2401.1428
JAS-1B 23 Sep 13:34:19 13:40:10 23° 64° (ENE) 13:45:23 435.800 - 435.900 CW/SSB
ITAMSAT 1 23 Sep 14:21:13 14:25:36 29° 68° (ENE) 14:30:00 435.822 SSB
Uribyol 2 23 Sep 14:24:06 14:28:40 33° 69° (ENE) 14:33:15 436.500 FM
Oscar 19 23 Sep 14:27:47 14:32:59 81° 75° (ENE) 14:38:12 437.125 CW, 437.150 USB
Gurwin Techsat 1B 23 Sep 14:35:02 14:38:39 19° 64° (ENE) 14:42:17 435.225 FM
AO-Echo 23 Sep 14:47:08 14:51:45 58° 74° (ENE) 14:56:22 ?
RS-15 23 Sep 14:50:09 15:01:02 61° 247° (WSW) 15:12:24 29.354 - 29.394 USB, Beacon 29.352 USB
AO-27 23 Sep 14:56:29 15:01:35 65° 74° (ENE) 15:06:44 436.795 MHz FM
Oscar 16 23 Sep 15:07:48 15:12:39 40° 262° (W) 15:17:33 437.025 USB, Beacon 2401.1428
TMSAT-1 23 Sep 15:08:19 15:12:46 28° 68° (ENE) 15:17:13 436.925 FM
JAS-1B 23 Sep 15:21:50 15:30:21 69° 257° (WSW) 15:37:28 435.800 - 435.900 CW/SSB
ITAMSAT 1 23 Sep 16:00:27 16:04:58 31° 263° (W) 16:09:32 435.822 SSB
Uosat F 23 Sep 16:03:01 16:05:50 15° 63° (ENE) 16:08:40 435.120 FM
Uribyol 2 23 Sep 16:03:46 16:08:07 27° 264° (W) 16:12:29 436.500 FM
Oscar 19 23 Sep 16:12:10 16:12:52 10° 270° (W) 16:13:34 437.125 CW, 437.150 USB
Gurwin Techsat 1B 23 Sep 16:13:03 16:18:11 51° 260° (W) 16:23:22 435.225 FM
AO-7 23 Sep 16:15:26 16:23:02 42° 63° (ENE) 16:30:39 29.400 - 29.500 MHz
AO-Echo 23 Sep 16:28:57 16:30:53 12° 268° (W) 16:32:48 ?
AO-27 23 Sep 16:39:07 16:41:31 13° 269° (W) 16:43:56 436.795 MHz FM
TMSAT-1 23 Sep 16:47:49 16:52:32 33° 263° (W) 16:57:17 436.925 FM
MaSat-1 23 Sep 17:13:03 17:15:10 15° 52° (NE) 17:17:07 437.345 MHz
Saudisat 1A 23 Sep 17:15:53 17:20:16 75° 301° (WNW) 17:24:42 436.775 MHz
OPAL 23 Sep 17:21:35 17:23:44 13° 93° (E) 17:25:52 ?
Hamsat 23 Sep 17:36:03 17:37:31 12° 65° (ENE) 17:39:00 145.90 MHz
